Location: Unspecified
(0.0000°N, 0.0000°E)
Time: 13:12:38
(UTC+00:00)

Vanguard 1 - Visible Passes

Search period start: 24 April 2017 00:00
Search period end: 04 May 2017 00:00
Orbit: 654 x 3830 km, 34.2° (Epoch: 22 April)

Date Brightness Start Highest point End Pass type
(mag) Time Alt. Az. Time Alt. Az. Time Alt. Az.
24 Apr 13.6 00:45:58 31° NNW 00:45:58 31° NNW 01:00:07 10° NNE visible
24 Apr 13.9 03:04:22 10° NW 03:14:35 15° N 03:22:58 10° NNE visible
24 Apr 13.5 05:37:54 10° NNW 05:44:54 15° N 05:50:12 10° NE visible
24 Apr 12.3 19:53:52 10° SW 20:07:52 66° SE 20:17:04 41° ENE visible
24 Apr 13.0 22:16:22 10° WSW 22:51:09 24° NNE 22:57:40 10° NE visible
25 Apr 13.7 01:03:38 26° NNW 01:05:13 26° NNW 01:21:21 10° NNE visible
25 Apr 13.9 03:29:11 10° NNW 03:38:16 14° N 03:45:37 10° NNE visible
25 Apr 12.6 17:56:16 10° SSW 18:05:26 27° SE 18:19:32 10° E visible
25 Apr 12.3 20:14:51 10° SW 20:29:22 82° SE 20:39:51 41° ENE visible
25 Apr 13.2 22:38:42 10° W 23:08:08 32° NNE 23:18:57 10° NE visible
26 Apr 13.9 01:20:30 18° NW 01:28:40 22° NNW 01:42:51 10° NNE visible
26 Apr 13.8 03:52:35 10° NNW 04:01:46 15° N 04:08:59 10° NNE visible
26 Apr 12.4 18:16:31 10° SSW 18:26:45 38° SE 18:43:36 10° ENE visible
26 Apr 12.4 20:36:03 10° WSW 20:51:01 82° NW 21:14:34 10° NE visible
26 Apr 13.4 23:01:34 10° W 23:19:36 38° NNW 23:40:14 10° NNE visible
27 Apr 13.9 01:38:06 10° NW 01:52:25 19° NNW 02:04:45 10° NNE visible
27 Apr 13.7 04:14:51 10° NNW 04:25:01 17° N 04:32:34 10° NE visible
27 Apr 12.2 18:37:01 10° SSW 18:47:58 50° SE 19:06:55 10° ENE visible
27 Apr 12.6 20:57:33 10° WSW 21:12:54 67° NW 21:36:14 10° NE visible
27 Apr 13.6 23:25:00 10° W 23:42:32 31° NNW 00:01:35 10° NNE visible
28 Apr 14.0 02:03:16 10° NW 02:16:21 17° N 02:27:17 10° NNE visible
28 Apr 13.5 04:36:29 10° NNW 04:47:58 21° NNE 04:55:54 10° ENE visible
28 Apr 12.0 18:57:43 10° SW 19:09:12 66° SE 19:29:39 10° ENE visible
28 Apr 12.9 21:19:23 10° WSW 21:35:00 54° NNW 21:57:44 10° NE visible
28 Apr 13.8 23:49:05 10° WNW 00:05:51 26° NNW 00:23:09 10° NNE visible
29 Apr 14.0 02:27:37 10° NW 02:40:16 17° N 02:50:28 10° NE visible
29 Apr 13.3 04:57:49 10° NNW 05:10:36 26° NNE 05:18:46 10° ENE visible
29 Apr 12.0 19:18:37 10° SW 19:30:34 84° SE 19:51:56 10° NE visible
29 Apr 13.2 21:41:37 10° W 21:57:24 44° NNW 22:19:09 10° NE visible
30 Apr 13.9 00:13:42 10° WNW 00:29:33 22° NNW 00:45:05 10° NNE visible
30 Apr 13.9 02:50:53 10° NNW 03:03:59 19° N 03:14:03 10° NE visible
30 Apr 12.9 05:19:04 10° NW 05:32:55 34° NNE 05:41:08 10° E visible
30 Apr 12.2 19:39:48 10° WSW 19:52:08 79° NW 20:13:53 10° NE visible
30 Apr 13.5 22:04:21 10° W 22:20:06 36° NNW 22:40:35 10° NE visible
01 May 14.0 00:38:33 10° NW 00:53:32 20° N 01:07:32 10° NNE visible
01 May 13.8 03:13:17 10° NNW 03:27:24 21° NNE 03:37:36 10° ENE visible
01 May 12.5 20:01:14 10° WSW 20:13:57 63° NNW 20:35:34 10° NE visible
01 May 13.7 22:27:37 10° WNW 22:43:10 29° NNW 23:02:10 10° NNE visible
02 May 14.1 01:03:07 10° NW 01:17:41 19° N 01:30:40 10° NE visible
02 May 13.6 03:35:08 10° NNW 03:50:27 26° NNE 04:00:49 10° ENE visible
02 May 11.7 18:01:57 10° SW 18:11:18 66° SE 18:28:53 10° ENE visible
02 May 12.9 20:23:01 10° WSW 20:36:03 50° NNW 20:57:07 10° NE visible
02 May 13.9 22:51:26 10° WNW 23:06:36 25° NNW 23:24:03 10° NNE visible
03 May 14.0 01:26:57 10° NW 01:41:47 20° N 01:54:20 10° NE visible
03 May 13.3 03:56:41 10° NW 04:13:11 32° NNE 04:23:34 10° E visible
03 May 11.8 18:22:50 10° SW 18:32:33 86° SE 18:51:06 10° NE visible
03 May 13.2 20:45:13 10° W 20:58:27 40° NNW 21:18:37 10° NE visible
03 May 14.0 23:15:40 10° NW 23:30:25 22° N 23:46:24 10° NNE visible
